Location: �terpigny
(49.8910°N, 2.9249°E)
Time: 15:31:55
(UTC+00:00)

Cosmos 2219 Rocket - Pass Details

Date: 24 October 2021
Orbit: 827 x 848 km, 71.0° (Epoch: 28 November)

Event Time Altitude Azimuth Distance (km) Brightness Sun altitude
Rises 19:53:58 0° 210° (SSW) 3,356 5.4 -31.6°
Reaches altitude 10° 19:56:23 10° 212° (SSW) 2,428 4.7 -32.0°
Enters shadow 19:57:18 15° 213° (SSW) 2,086 4.3 -32.1°
